[[{"header":{"parameterUnit":"m.s-1","parameterCategory":1,"la1":30.2992,"la2":30.254,"lo1":-89.0895,"lo2":-89.0443,"dy":0.0025,"dx":0.0025,"nx":19,"ny":19,"refTime":"2026-04-08T09:00:00:Z","depth":0,"parameterNumber":2,"parameterNumberName":"U-component_of_WINDS"},"data":[0,0,0,-1.2537,-1.2541,-1.2716,-1.2717,-1.2937,-1.2939,0,0,0,0,0,0,0,0,0,0,0,-1.2481,-1.2483,-1.2537,-1.2541,-1.2716,-1.2717,-1.2936,-1.2939,0,0,0,0,0,0,0,0,0,0,0,-1.2481,-1.2482,-1.2484,-1.2542,-1.2716,-1.2717,-1.2936,-1.2805,0,0,0,0,0,0,0,0,0,0,-1.2636,-1.258,-1.2482,-1.2484,-1.2543,-1.2716,-1.2717,-1.2799,-1.2814,-1.2855,0,-1.2889,0,-1.2917,-1.2953,-1.2954,0,0,0,-1.2544,-1.2568,-1.2619,-1.2484,-1.2544,-1.2716,-1.2638,-1.2807,-1.2823,-1.2874,-1.2893,-1.2901,-1.2921,-1.2954,-1.2955,-1.3179,-1.318,0,0,-1.2535,-1.2511,-1.2608,-1.2629,-1.2601,-1.2633,-1.2644,-1.2817,-1.2837,-1.2893,-1.2906,-1.2925,-1.2956,-1.2957,-1.3178,-1.3179,0,0,0,-1.2505,-1.2504,-1.2551,-1.262,-1.2652,-1.2638,-1.265,-1.2829,-1.2846,-1.2909,-1.2927,-1.2957,-1.2959,-1.3177,-1.3179,-1.3199,0,0,0,-1.2499,-1.2487,-1.2546,-1.2534,-1.2649,-1.2743,-1.2658,-1.2834,-1.2854,-1.2926,-1.2957,-1.2962,-1.3176,-1.3178,-1.3197,-1.3213,0,0,0,-1.2471,-1.2483,-1.2507,-1.2532,-1.2606,-1.274,-1.2767,-1.2839,-1.2866,-1.2954,-1.2962,-1.3176,-1.3178,-1.3194,-1.3209,-1.3265,0,0,0,-1.2435,-1.2524,-1.2507,-1.2614,-1.2605,-1.2751,-1.2767,-1.2877,-1.2955,-1.2958,-1.3177,-1.3179,-1.3194,-1.3207,-1.3262,-1.3307,-1.3324,0,0,-1.2534,-1.2535,-1.26,-1.259,-1.2733,-1.2726,-1.2874,-1.2968,-1.2999,-1.3117,-1.3123,-1.3198,-1.3209,-1.3264,-1.3424,-1.3437,0,0,0,-1.2623,-1.2669,-1.2712,-1.2785,-1.2858,-1.2923,-1.2997,-1.3032,-1.3134,-1.3054,-1.3233,-1.3241,-1.3275,-1.3297,-1.3308,-1.3338,-1.3188,-1.3188,-1.3188,-1.273,-1.2763,-1.2872,-1.2927,-1.2997,-1.3072,-1.3132,-1.3192,-1.3207,-1.3248,-1.3284,-1.3377,-1.3402,-1.3411,-1.3442,-1.331,-1.331,-1.331,-1.331,-1.2878,-1.2949,-1.2964,-1.3075,-1.311,-1.3205,-1.3281,-1.3287,-1.3381,-1.3353,-1.3384,-1.335,-1.3424,-1.3453,-1.3312,-1.3312,-1.3312,-1.3312,-1.3312,-1.2952,-1.2991,-1.3031,-1.3139,-1.3219,-1.3271,-1.336,-1.3389,-1.3417,-1.3448,-1.3489,-1.3488,-1.3492,-1.3465,-1.3466,-1.3466,-1.3466,-1.3466,-1.3467,-1.3012,-1.3057,-1.3127,-1.3212,-1.3262,-1.3332,-1.3408,-1.3459,-1.3522,-1.3537,-1.3537,-1.3547,-1.3424,-1.3393,-1.3472,-1.3471,-1.347,-1.347,-1.3469,-1.315,-1.3123,-1.3232,-1.3282,-1.3384,-1.3461,-1.3497,-1.3597,-1.3643,-1.3686,-1.3689,-1.3594,-1.3597,-1.3589,-1.3563,-1.3682,-1.3682,-1.3682,-1.3682,-1.3212,-1.3216,-1.3333,-1.3412,-1.3492,-1.3535,-1.3657,-1.3717,-1.3776,-1.3807,-1.3794,-1.3762,-1.3752,-1.3761,-1.3749,-1.3726,-1.3883,-1.3883,-1.3883,-1.3298,-1.3312,-1.341,-1.3465,-1.3547,-1.3617,-1.3733,-1.3823,-1.3884,-1.3892,-1.3831,-1.3823,-1.3772,-1.3754,-1.376,-1.3741,-1.3698,0,0]},{"header":{"parameterUnit":"m.s-1","parameterCategory":1,"la1":30.2992,"la2":30.254,"lo1":-89.0895,"lo2":-89.0443,"dy":0.0025,"dx":0.0025,"nx":19,"ny":19,"refTime":"2026-04-08T09:00:00:Z","depth":0,"parameterNumber":3,"parameterNumberName":"V-component_of_WINDS"},"data":[0,0,0,-3.639,-3.6391,-3.6415,-3.6415,-3.6462,-3.6462,0,0,0,0,0,0,0,0,0,0,0,-3.6393,-3.6394,-3.639,-3.6391,-3.6415,-3.6415,-3.6462,-3.6462,0,0,0,0,0,0,0,0,0,0,0,-3.6393,-3.6393,-3.6394,-3.6391,-3.6415,-3.6415,-3.6461,-3.6437,0,0,0,0,0,0,0,0,0,0,-3.6411,-3.6424,-3.6393,-3.6394,-3.6391,-3.6415,-3.6415,-3.6436,-3.6439,-3.6457,0,-3.6477,0,-3.647,-3.6466,-3.6467,0,0,0,-3.6383,-3.6422,-3.6419,-3.6394,-3.6392,-3.6415,-3.6402,-3.6437,-3.6441,-3.6461,-3.6478,-3.6479,-3.6471,-3.6467,-3.6467,-3.6599,-3.66,0,0,-3.6382,-3.6403,-3.6417,-3.6422,-3.642,-3.6402,-3.6403,-3.6439,-3.6458,-3.6478,-3.648,-3.6472,-3.6467,-3.6468,-3.6598,-3.6599,0,0,0,-3.6383,-3.6402,-3.6398,-3.642,-3.6423,-3.6402,-3.6404,-3.6457,-3.6454,-3.648,-3.6473,-3.6467,-3.6468,-3.6597,-3.6598,-3.6666,0,0,0,-3.6382,-3.6403,-3.6398,-3.6411,-3.6423,-3.6441,-3.6421,-3.6451,-3.6454,-3.6472,-3.6467,-3.6469,-3.6596,-3.6598,-3.6662,-3.6695,0,0,0,-3.6388,-3.6403,-3.6411,-3.6412,-3.6424,-3.644,-3.6438,-3.6451,-3.645,-3.6467,-3.6469,-3.6595,-3.6597,-3.6658,-3.6688,-3.6734,0,0,0,-3.64,-3.6472,-3.6412,-3.6489,-3.6424,-3.6482,-3.6438,-3.648,-3.6502,-3.6468,-3.6596,-3.6598,-3.6657,-3.6685,-3.6731,-3.6776,-3.6798,0,0,-3.6502,-3.6485,-3.6528,-3.6475,-3.6549,-3.6476,-3.656,-3.656,-3.6543,-3.6581,-3.6584,-3.6663,-3.6688,-3.6734,-3.6911,-3.6928,0,0,0,-3.6567,-3.6599,-3.6613,-3.6635,-3.6637,-3.6641,-3.6626,-3.6626,-3.6657,-3.6567,-3.6692,-3.6706,-3.6732,-3.6753,-3.6767,-3.6787,-3.6609,-3.6609,-3.6608,-3.6742,-3.6715,-3.6783,-3.6759,-3.678,-3.6763,-3.6778,-3.6774,-3.6742,-3.6771,-3.6782,-3.6893,-3.6919,-3.6929,-3.6951,-3.6805,-3.6805,-3.6805,-3.6806,-3.6888,-3.6927,-3.688,-3.693,-3.69,-3.6941,-3.6927,-3.6902,-3.6935,-3.6883,-3.6905,-3.685,-3.6949,-3.6966,-3.681,-3.681,-3.6809,-3.6809,-3.6808,-3.6999,-3.7012,-3.701,-3.7037,-3.7061,-3.7032,-3.7066,-3.7038,-3.7012,-3.7033,-3.704,-3.7039,-3.7033,-3.7039,-3.7039,-3.7039,-3.704,-3.704,-3.704,-3.7114,-3.711,-3.7141,-3.7147,-3.7156,-3.7164,-3.7146,-3.7154,-3.7155,-3.7132,-3.7132,-3.7095,-3.6964,-3.6931,-3.7046,-3.7045,-3.7044,-3.7044,-3.7043,-3.7272,-3.7231,-3.728,-3.7289,-3.7292,-3.7316,-3.7279,-3.7297,-3.7299,-3.7316,-3.7274,-3.7182,-3.7162,-3.7151,-3.7123,-3.7281,-3.7281,-3.7281,-3.7281,-3.7365,-3.7351,-3.7394,-3.7409,-3.7421,-3.7392,-3.7447,-3.7432,-3.7411,-3.7411,-3.7384,-3.7345,-3.7334,-3.7321,-3.7305,-3.7279,-3.7473,-3.7473,-3.7473,-3.7459,-3.7445,-3.7498,-3.7476,-3.7476,-3.7476,-3.7525,-3.7544,-3.7512,-3.748,-3.7409,-3.7401,-3.7338,-3.7319,-3.7287,-3.7263,-3.7215,0,0]}]]